"Pseudo-MPEC" for A118pY7

Created 2024 Aug 1 16:22:03 UT using Find_Orb

Click here for an explanation of pseudo-MPECs

 
 Astrometry: 
     A118pY7* C2024 07 14.25474422 49 13.814-32 50 48.23   ~7E87 16.89oVNEOCPW68
     A118pY7  C2024 07 14.25752022 49 34.205-32 45 19.04   ~7E87 16.86oVNEOCPW68
     A118pY7  C2024 07 14.25932322 49 47.438-32 41 44.27   ~7E87 16.81oVNEOCPW68
     A118pY7  C2024 07 14.26067522 49 57.372-32 39 02.20   ~7E87 16.87oVNEOCPW68
     A118pY7  C2024 07 14.26157722 50 04.013-32 37 14.23   ~7E87 16.77oVNEOCPW68
     A118pY7  C2024 07 14.26434822 50 24.643-32 31 37.78   ~7E87 16.82oVNEOCPW68
     A118pY7  C2024 07 14.27021722 51 08.402-32 19 38.75   ~7E87 16.77oVNEOCPW68
     A118pY7  C2024 07 14.27347122 51 32.952-32 12 53.53   ~7E87 16.96oVNEOCPW68
     A118pY7  C2024 07 14.34134623 00 38.40 -29 35 29.5    ~7E8b       WNEOCPX09
     A118pY7  C2024 07 14.34244123 00 47.82 -29 32 39.8    ~7E8b       WNEOCPX09
     A118pY7 KB2024 07 15.03148102 41 17.198+41 24 32.18   ~7H9M 17.7 GXNEOCPL34
     A118pY7 KB2024 07 15.03686802 43 53.731+41 54 01.58   ~7H9M 18.2 GXNEOCPL34
     A118pY7 bC2024 07 15.05190502 50 44.340+43 04 11.50   ~7F2b 17.2 GVNEOCPJ95
     A118pY7 bC2024 07 15.05444702 51 58.524+43 17 02.26   ~7F2b 17.7 GVNEOCPJ95
     A118pY7 bC2024 07 15.05959202 54 28.483+43 42 34.92   ~7F2b 16.7 GVNEOCPJ95
     A118pY7 bC2024 07 15.06194902 55 37.315+43 54 05.58   ~7F2bx17.2 GVNEOCPJ95
     A118pY7 bC2024 07 15.06471302 56 57.720+44 07 26.08   ~7F2bx18.3 GVNEOCPJ95
     A118pY7 KB2024 07 15.06706402 58 22.34 +44 20 58.0    ~7F27 18.3 GXNEOCPI93
     A118pY7 bC2024 07 15.06715402 58 08.726+44 19 06.38   ~7F2b 18.2 GVNEOCPJ95
     A118pY7 KB2024 07 15.06895902 59 17.50 +44 29 56.7    ~7F27 18.9 GXNEOCPI93
     A118pY7 KB2024 07 15.07087803 00 13.37 +44 38 58.3    ~7F27 18.5 GXNEOCPI93
     A118pY7 KB2024 07 15.08995903 09 30.134+46 10 52.54   ~7H9M 18.6 GXNEOCPL34

Station data:
(I93) St Pardon de Conques  (N44.558670 W0.202960)  France.  Observers F.
   Losse, W. D'Anna. Measurer F. Losse. 0.40-m f/3.7 reflector + CCD.
(J95) Great Shefford  (N51.474969 W1.447003)  UK/England.  Observer P.
   Birtwhistle. 0.41-m f/6.3 Schmidt-Cassegrain + CCD.
(L34) Galhassin Robotic Telescope, Isnello  (N37.939358 E14.020610)  Italy.
   Observer A. Nastasi. 0.40-m reflector + CCD.
(W68) ATLAS Chile, Rio Hurtado  (S30.471010 W70.764980)  Chile.  Observers L.
   Denneau, R. Siverd, J. Tonry, H. Weiland. Measurers L. Denneau, N.
   Erasmus, A. Fitzsimmons, A. Lawrence, J. Robinson, R. Siverd, J. Tonry, H.
   Weiland. 0.5-m reflector + CCD.
(X09) Deep Random Survey, Rio Hurtado  (S30.526310 W70.853300)  Chile.

Orbital elements:  A118pY7
   Perigee 2024 Jul 14.83476 +/- 3.19e-5 TT = 20:02:03 (JD 2460506.33476)
Epoch 2024 Jul 15.0 TT = JDT 2460506.5                           AutoNEOCP
q551650.903 +/- 391                 (J2000 equator)
H   25.66 G 0.15                    Peri.   20.63085 +/- 0.0026
                                    Node     5.96448 +/- 0.00028
e 518.7281651 +/- 1.11              Incl.   57.97773 +/- 0.00022
20 of 22 observations 2024 July 14-15 (20.0 hr); mean residual 0".72
Residuals in arcseconds: 
240714 W68  .00   .09+    240714 X09  .72-  .47-    240715 J95( .11-  1.4-)   
240714 W68  .68+  .32+    240714 X09  .30-  .31-    240715 I93  .45-  .26-    
240714 W68  .33+  .06-    240715 L34  .61-  1.5-    240715 J95  .57-  .79-    
240714 W68  .13-  .10-    240715 L34  1.8-  .72-    240715 I93  .23+  .10-    
240714 W68  .43-  .65-    240715 J95  .56+  .25+    240715 I93  1.4+  .75+    
240714 W68  .73+  .54+    240715 J95  .51+  .73+    240715 L34  1.9+  1.1+    
240714 W68  .13-  .03+    240715 J95  .57-  .06-    
240714 W68  .60+  .71+    240715 J95( .96+  .52-)   

Ephemerides (geocentric):
Date (UTC) HH   RA             Dec           delta  r     elong  mag " sig PA
---- --------  ------------   ------------  ------ ------ -----  --- --------
2024 08 01 16  08 38 20.943   +51 36 26.03  .20283 .85386  33.8 28?? 1.06   0
2024 08 01 17  08 38 21.687   +51 35 57.08  .20332 .85350  33.8 28?? 1.07   0
2024 08 01 18  08 38 22.430   +51 35 28.07  .20381 .85313  33.8 28?? 1.07   0
2024 08 01 19  08 38 23.170   +51 34 59.02  .20430 .85277  33.8 28?? 1.07   0
2024 08 01 20  08 38 23.909   +51 34 29.91  .20479 .85241  33.8 28?? 1.08   0
2024 08 01 21  08 38 24.645   +51 34 00.75  .20528 .85204  33.8 28?? 1.08   0
2024 08 01 22  08 38 25.379   +51 33 31.54  .20577 .85168  33.8 28?? 1.09   0
2024 08 01 23  08 38 26.111   +51 33 02.28  .20626 .85132  33.8 28?? 1.09   0
2024 08 02 00  08 38 26.841   +51 32 32.96  .20675 .85096  33.8 28?? 1.09   0
2024 08 02 01  08 38 27.570   +51 32 03.59  .20724 .85060  33.8 28?? 1.10   0
2024 08 02 02  08 38 28.296   +51 31 34.17  .20774 .85023  33.8 28?? 1.10   0
2024 08 02 03  08 38 29.020   +51 31 04.70  .20823 .84987  33.8 28?? 1.11   0
2024 08 02 04  08 38 29.743   +51 30 35.18  .20872 .84951  33.9 28?? 1.11   0
2024 08 02 05  08 38 30.464   +51 30 05.60  .20921 .84915  33.9 28?? 1.12   0
2024 08 02 06  08 38 31.183   +51 29 35.97  .20970 .84879  33.9 28?? 1.12   0
2024 08 02 07  08 38 31.900   +51 29 06.28  .21019 .84843  33.9 28?? 1.13   0
2024 08 02 08  08 38 32.616   +51 28 36.55  .21069 .84807  33.9 28?? 1.13   0
2024 08 02 09  08 38 33.330   +51 28 06.76  .21118 .84771  33.9 28?? 1.13   0
2024 08 02 10  08 38 34.042   +51 27 36.91  .21167 .84735  33.9 28?? 1.14   0
2024 08 02 11  08 38 34.753   +51 27 07.01  .21216 .84699  33.9 28?? 1.14   0
2024 08 02 12  08 38 35.462   +51 26 37.06  .21266 .84663  33.9 28?? 1.15   0
2024 08 02 13  08 38 36.170   +51 26 07.05  .21315 .84627  33.9 28?? 1.15   0
2024 08 02 14  08 38 36.877   +51 25 36.99  .21364 .84590  33.9 28?? 1.16   1
2024 08 02 15  08 38 37.582   +51 25 06.87  .21413 .84555  33.9 28?? 1.16   1
2024 08 02 16  08 38 38.285   +51 24 36.70  .21463 .84519  33.9 28?? 1.17   1
2024 08 02 17  08 38 38.987   +51 24 06.48  .21512 .84483  33.9 28?? 1.17   1
2024 08 02 18  08 38 39.688   +51 23 36.20  .21561 .84447  33.9 28?? 1.18   1
2024 08 02 19  08 38 40.388   +51 23 05.86  .21611 .84411  33.9 28?? 1.18   1
2024 08 02 20  08 38 41.086   +51 22 35.47  .21660 .84375  33.9 28?? 1.18   1
2024 08 02 21  08 38 41.783   +51 22 05.02  .21710 .84339  33.9 28?? 1.19   1
2024 08 02 22  08 38 42.479   +51 21 34.52  .21759 .84303  33.9 28?? 1.19   1
2024 08 02 23  08 38 43.174   +51 21 03.96  .21808 .84267  33.9 28?? 1.20   1
2024 08 03 00  08 38 43.868   +51 20 33.34  .21858 .84231  33.9 28?? 1.20   1
2024 08 03 01  08 38 44.560   +51 20 02.67  .21907 .84195  34.0 28?? 1.21   1
2024 08 03 02  08 38 45.252   +51 19 31.94  .21957 .84160  34.0 28?? 1.21   1
2024 08 03 03  08 38 45.942   +51 19 01.16  .22006 .84124  34.0 28?? 1.22   1
2024 08 03 04  08 38 46.632   +51 18 30.32  .22055 .84088  34.0 28?? 1.22   1
2024 08 03 05  08 38 47.320   +51 17 59.42  .22105 .84052  34.0 28?? 1.23   1
2024 08 03 06  08 38 48.008   +51 17 28.47  .22154 .84016  34.0 28?? 1.23   1
2024 08 03 07  08 38 48.694   +51 16 57.45  .22204 .83981  34.0 28?? 1.24   1
2024 08 03 08  08 38 49.380   +51 16 26.39  .22253 .83945  34.0 28?? 1.24   1
2024 08 03 09  08 38 50.065   +51 15 55.26  .22303 .83909  34.0 28?? 1.25   1
2024 08 03 10  08 38 50.750   +51 15 24.07  .22353 .83874  34.0 28?? 1.25   1
2024 08 03 11  08 38 51.433   +51 14 52.83  .22402 .83838  34.0 28?? 1.26   1
2024 08 03 12  08 38 52.116   +51 14 21.53  .22452 .83802  34.0 28?? 1.26   1
2024 08 03 13  08 38 52.798   +51 13 50.17  .22501 .83766  34.0 28?? 1.27   1
2024 08 03 14  08 38 53.479   +51 13 18.76  .22551 .83731  34.0 28?? 1.28   1
2024 08 03 15  08 38 54.160   +51 12 47.28  .22600 .83695  34.0 28?? 1.28   1